Flag for Germany Weather past 2 weeks in Stassfurt, Saxony-Anhalt, Germany

Now
79 °F

Partly sunny.


Feels Like: 79 °F
Forecast: 60 / 84 °F
Wind: 2 mph from Southeast

Location: Magdeburg

Current Time: Aug 1, 2014 at 4:27:07 PM

Latest Report: Aug 1, 2014 at 4:00 PM


Visibility: 25 mi

Pressure: 29.89 "Hg

Humidity: 40%

Dew point: 53 °F

Location of StassfurtLocation

Historic Weather in Stassfurt — Graph

°F

Stassfurt temperature yesterday

Maximum temperature yesterday: 76 °F (at 6:00 PM)
Minimum temperature yesterday: 57 °F (at 4:00 AM)
Average temperature yesterday: 67 °F

Past Weeks' High & Low Weather Summary

 TemperatureHumidityPressure
High93 °F (Jul 20, 3:00 PM)98% (Jul 26, 6:00 AM)30.17 "Hg (Jul 26, 6:00 AM)
Low56 °F (Aug 1, 6:00 AM)20% (Jul 19, 6:00 PM)29.71 "Hg (Jul 30, 4:00 AM)
Average73 °F68%29.93 "Hg
* Reported Jul 17 3:00 PM — Aug 1 3:00 PM, Stassfurt, Weather by CustomWeather, © 2014

Note: Actual official high and low records may vary slightly from our data, if they occured in-between our weather recording intervals... More about our weather records

Advertising

Stassfurt weather history for previous 24 hours

 ConditionsComfort  
Time TempWeatherWind HumidityBarometerVisibility
3:00 PM
Aug 1
80 °FOvercast.3 mph39%29.90 "Hg25 mi
2:00 PM79 °FPartly sunny.2 mph37%29.91 "Hg31 mi
1:00 PM80 °FPartly sunny.3 mph40%29.92 "Hg31 mi
12:00 PM78 °FScattered clouds.3 mph43%29.93 "Hg31 mi
11:00 AM76 °FScattered clouds.3 mph47%29.95 "Hg31 mi
10:00 AM72 °FScattered clouds.3 mph57%29.95 "Hg31 mi
9:00 AM69 °FScattered clouds.2 mph63%29.96 "Hg31 mi
8:00 AM65 °FPartly sunny.1 mph80%29.96 "Hg25 mi
7:00 AM59 °FPartly sunny.1 mph94%29.96 "Hg19 mi
6:00 AM56 °FScattered clouds.1 mph96%29.96 "Hg16 mi
4:00 AM57 °FClear.1 mph95%29.97 "Hg6 mi
3:00 AM58 °FPassing clouds.No wind93%29.98 "Hg9 mi
2:00 AM58 °FClear.1 mph90%29.98 "Hg11 mi
1:00 AM60 °FPassing clouds.1 mph89%29.98 "Hg12 mi
12:00 AM61 °FClear.1 mph87%29.98 "Hg12 mi
11:00 PM
Jul 31
62 °FClear.1 mph83%29.98 "Hg15 mi
10:00 PM63 °FPassing clouds.1 mph81%29.97 "Hg18 mi
9:00 PM68 °FScattered clouds.1 mph66%29.96 "Hg22 mi
8:00 PM74 °FPassing clouds.1 mph47%29.95 "Hg28 mi
7:00 PM76 °FScattered clouds.2 mph43%29.95 "Hg22 mi
6:00 PM76 °FScattered clouds.2 mph44%29.95 "Hg25 mi
5:00 PM75 °FScattered clouds.2 mph46%29.96 "Hg37 mi
4:00 PM76 °FScattered clouds.2 mph45%29.96 "Hg37 mi
Weather by CustomWeather, © 2014

See weather overviewHow to use our weather pages